Time,TemperatureF,DewpointF,PressureIn,WindDirection,WindDirectionDegrees,WindSpeedMPH,WindSpeedGustMPH,Humidity,HourlyPrecipIn,Conditions,Clouds,dailyrainin,SoftwareType,DateUTC
2013-05-21 00:01:00,54.0,48.0,29.91,East,81,3.0,5.0,79,0.00,,,0.00,,2013-05-21 07:01:00,
2013-05-21 00:11:00,54.0,48.0,29.91,East,81,3.0,5.0,79,0.00,,,0.00,,2013-05-21 07:11:00,
2013-05-21 00:21:00,52.0,48.0,29.90,NW,324,7.0,14.0,85,0.00,,,0.00,,2013-05-21 07:21:00,
2013-05-21 00:31:00,52.0,48.0,29.90,NW,324,7.0,14.0,85,0.00,,,0.00,,2013-05-21 07:31:00,
2013-05-21 00:42:00,52.0,48.0,29.90,NW,324,7.0,14.0,85,0.00,,,0.00,,2013-05-21 07:42:00,
2013-05-21 00:52:00,50.0,46.0,29.90,NW,324,5.0,12.0,86,0.00,,,0.00,,2013-05-21 07:52:00,
2013-05-21 01:01:00,50.0,46.0,29.90,NW,324,5.0,12.0,86,0.00,,,0.00,,2013-05-21 08:01:00,
2013-05-21 01:11:00,50.0,46.0,29.90,NW,324,5.0,12.0,86,0.00,,,0.00,,2013-05-21 08:11:00,
2013-05-21 01:21:00,51.0,47.0,29.89,North,11,3.0,7.0,85,0.00,,,0.00,,2013-05-21 08:21:00,
2013-05-21 01:31:00,51.0,47.0,29.89,North,11,3.0,7.0,85,0.00,,,0.00,,2013-05-21 08:31:00,
2013-05-21 01:42:00,49.0,46.0,29.89,North,1,1.0,5.0,89,0.01,,,0.01,,2013-05-21 08:42:00,
2013-05-21 01:52:00,49.0,46.0,29.89,North,1,1.0,5.0,89,0.01,,,0.01,,2013-05-21 08:52:00,
2013-05-21 02:01:00,49.0,46.0,29.89,North,1,1.0,5.0,89,0.01,,,0.01,,2013-05-21 09:01:00,
2013-05-21 02:11:00,49.0,46.0,29.89,North,1,1.0,5.0,89,0.01,,,0.01,,2013-05-21 09:11:00,
2013-05-21 02:21:00,48.0,46.0,29.88,NW,318,3.0,6.0,92,0.05,,,0.05,,2013-05-21 09:21:00,
2013-05-21 02:32:00,48.0,46.0,29.88,NW,318,3.0,6.0,92,0.05,,,0.05,,2013-05-21 09:32:00,
2013-05-21 02:42:00,48.0,46.0,29.88,NW,318,3.0,6.0,92,0.05,,,0.05,,2013-05-21 09:42:00,
2013-05-21 02:52:00,48.0,46.0,29.88,East,96,1.0,2.0,93,0.10,,,0.11,,2013-05-21 09:52:00,
2013-05-21 03:02:00,48.0,46.0,29.88,East,96,1.0,2.0,93,0.10,,,0.11,,2013-05-21 10:02:00,
2013-05-21 03:12:00,48.0,46.0,29.88,East,96,1.0,2.0,93,0.10,,,0.11,,2013-05-21 10:12:00,
2013-05-21 03:22:00,48.0,46.0,29.88,West,274,3.0,5.0,94,0.11,,,0.16,,2013-05-21 10:22:00,
2013-05-21 03:32:00,48.0,46.0,29.88,West,274,3.0,5.0,94,0.11,,,0.16,,2013-05-21 10:32:00,
2013-05-21 03:42:00,48.0,46.0,29.88,West,274,3.0,5.0,94,0.11,,,0.16,,2013-05-21 10:42:00,
2013-05-21 03:52:00,47.0,45.0,29.87,West,276,7.0,10.0,93,0.09,,,0.20,,2013-05-21 10:52:00,
2013-05-21 04:02:00,47.0,45.0,29.87,West,276,7.0,10.0,93,0.09,,,0.20,,2013-05-21 11:02:00,
2013-05-21 04:11:00,47.0,45.0,29.87,West,276,7.0,10.0,93,0.09,,,0.20,,2013-05-21 11:11:00,
2013-05-21 04:21:00,46.0,44.0,29.86,SW,222,4.0,8.0,92,0.07,,,0.23,,2013-05-21 11:21:00,
2013-05-21 04:31:00,46.0,44.0,29.86,SW,222,4.0,8.0,92,0.07,,,0.23,,2013-05-21 11:31:00,
2013-05-21 04:42:00,46.0,44.0,29.86,SW,222,4.0,8.0,92,0.07,,,0.23,,2013-05-21 11:42:00,
2013-05-21 04:52:00,46.0,44.0,29.86,SW,218,3.0,6.0,94,0.06,,,0.26,,2013-05-21 11:52:00,
2013-05-21 05:01:00,46.0,44.0,29.86,SW,218,3.0,6.0,94,0.06,,,0.26,,2013-05-21 12:01:00,
2013-05-21 05:11:00,46.0,44.0,29.86,SW,218,3.0,6.0,94,0.06,,,0.26,,2013-05-21 12:11:00,
2013-05-21 05:21:00,45.0,43.0,29.86,SSW,213,5.0,10.0,93,0.08,,,0.31,,2013-05-21 12:21:00,
2013-05-21 05:31:00,45.0,43.0,29.86,SSW,213,5.0,10.0,93,0.08,,,0.31,,2013-05-21 12:31:00,
2013-05-21 05:42:00,45.0,43.0,29.86,SSW,213,5.0,10.0,93,0.08,,,0.31,,2013-05-21 12:42:00,
2013-05-21 05:51:00,45.0,43.0,29.85,South,191,4.0,11.0,94,0.12,,,0.38,,2013-05-21 12:51:00,
2013-05-21 06:01:00,45.0,43.0,29.85,South,191,4.0,11.0,94,0.12,,,0.38,,2013-05-21 13:01:00,
2013-05-21 06:11:00,45.0,43.0,29.85,South,191,4.0,11.0,94,0.12,,,0.38,,2013-05-21 13:11:00,
2013-05-21 06:22:00,45.0,43.0,29.85,SW,226,5.0,12.0,94,0.09,,,0.40,,2013-05-21 13:22:00,
2013-05-21 06:31:00,45.0,43.0,29.85,SW,226,5.0,12.0,94,0.09,,,0.40,,2013-05-21 13:31:00,
2013-05-21 06:42:00,45.0,43.0,29.85,SW,226,5.0,12.0,94,0.09,,,0.40,,2013-05-21 13:42:00,
2013-05-21 06:52:00,45.0,43.0,29.85,SSE,149,4.0,9.0,94,0.05,,,0.43,,2013-05-21 13:52:00,
2013-05-21 07:01:00,45.0,43.0,29.85,SSE,149,4.0,9.0,94,0.05,,,0.43,,2013-05-21 14:01:00,
2013-05-21 07:11:00,45.0,43.0,29.85,SSE,149,4.0,9.0,94,0.05,,,0.43,,2013-05-21 14:11:00,
2013-05-21 07:21:00,45.0,43.0,29.84,SSE,158,6.0,10.0,94,0.04,,,0.44,,2013-05-21 14:21:00,
2013-05-21 07:31:00,45.0,43.0,29.84,SSE,158,6.0,10.0,94,0.04,,,0.44,,2013-05-21 14:31:00,
2013-05-21 07:42:00,45.0,43.0,29.84,SSE,158,6.0,10.0,94,0.04,,,0.44,,2013-05-21 14:42:00,
2013-05-21 07:52:00,45.0,43.0,29.83,SSW,200,5.0,9.0,94,0.02,,,0.45,,2013-05-21 14:52:00,
2013-05-21 08:01:00,45.0,43.0,29.83,SSW,200,5.0,9.0,94,0.02,,,0.45,,2013-05-21 15:01:00,
2013-05-21 08:11:00,45.0,43.0,29.83,SSW,200,5.0,9.0,94,0.02,,,0.45,,2013-05-21 15:11:00,
2013-05-21 08:21:00,46.0,44.0,29.83,SSE,155,5.0,9.0,94,0.01,,,0.45,,2013-05-21 15:21:00,
2013-05-21 08:32:00,46.0,44.0,29.83,SSE,155,5.0,9.0,94,0.01,,,0.45,,2013-05-21 15:32:00,
2013-05-21 08:42:00,46.0,44.0,29.82,SSE,160,4.0,9.0,94,0.00,,,0.45,,2013-05-21 15:42:00,
2013-05-21 08:52:00,46.0,44.0,29.82,SSE,160,4.0,9.0,94,0.00,,,0.45,,2013-05-21 15:52:00,
2013-05-21 09:02:00,46.0,44.0,29.82,SSE,160,4.0,9.0,94,0.00,,,0.45,,2013-05-21 16:02:00,
2013-05-21 09:12:00,46.0,44.0,29.82,SSE,160,4.0,9.0,94,0.00,,,0.45,,2013-05-21 16:12:00,
2013-05-21 09:23:00,47.0,45.0,29.81,SW,226,4.0,11.0,93,0.00,,,0.45,,2013-05-21 16:23:00,
2013-05-21 09:32:00,47.0,45.0,29.81,SW,226,4.0,11.0,93,0.00,,,0.45,,2013-05-21 16:32:00,
2013-05-21 09:42:00,47.0,45.0,29.81,South,186,4.0,10.0,93,0.00,,,0.45,,2013-05-21 16:42:00,
2013-05-21 09:52:00,47.0,45.0,29.81,South,186,4.0,10.0,93,0.00,,,0.45,,2013-05-21 16:52:00,
2013-05-21 10:02:00,47.0,45.0,29.81,South,186,4.0,10.0,93,0.00,,,0.45,,2013-05-21 17:02:00,
2013-05-21 10:12:00,47.0,45.0,29.81,South,186,4.0,10.0,93,0.00,,,0.45,,2013-05-21 17:12:00,
2013-05-21 10:22:00,47.0,45.0,29.81,South,188,7.0,11.0,92,0.00,,,0.45,,2013-05-21 17:22:00,
2013-05-21 10:32:00,47.0,45.0,29.81,South,188,7.0,11.0,92,0.00,,,0.45,,2013-05-21 17:32:00,
2013-05-21 10:44:00,49.0,46.0,29.80,SSW,207,4.0,9.0,91,0.00,,,0.45,,2013-05-21 17:44:00,
2013-05-21 10:52:00,49.0,46.0,29.80,SSW,207,4.0,9.0,91,0.00,,,0.45,,2013-05-21 17:52:00,
2013-05-21 11:01:00,49.0,46.0,29.80,SSW,207,4.0,9.0,91,0.00,,,0.45,,2013-05-21 18:01:00,
2013-05-21 11:11:00,49.0,46.0,29.80,SSW,207,4.0,9.0,91,0.00,,,0.45,,2013-05-21 18:11:00,
2013-05-21 11:22:00,50.0,47.0,29.79,South,190,3.0,11.0,88,0.00,,,0.45,,2013-05-21 18:22:00,
2013-05-21 11:32:00,50.0,47.0,29.79,South,190,3.0,11.0,88,0.00,,,0.45,,2013-05-21 18:32:00,
2013-05-21 11:42:00,51.0,46.0,29.79,South,180,4.0,11.0,82,0.00,,,0.45,,2013-05-21 18:42:00,
2013-05-21 11:52:00,51.0,46.0,29.79,South,180,4.0,11.0,82,0.00,,,0.45,,2013-05-21 18:52:00,
2013-05-21 12:01:00,51.0,46.0,29.79,South,180,4.0,11.0,82,0.00,,,0.45,,2013-05-21 19:01:00,
2013-05-21 12:11:00,51.0,46.0,29.79,South,180,4.0,11.0,82,0.00,,,0.45,,2013-05-21 19:11:00,
2013-05-21 12:21:00,52.0,46.0,29.79,SE,141,5.0,9.0,80,0.00,,,0.45,,2013-05-21 19:21:00,
2013-05-21 12:31:00,52.0,46.0,29.79,SE,141,5.0,9.0,80,0.00,,,0.45,,2013-05-21 19:31:00,
2013-05-21 12:42:00,52.0,46.0,29.79,SE,141,5.0,9.0,80,0.00,,,0.45,,2013-05-21 19:42:00,
2013-05-21 12:52:00,52.0,46.0,29.79,SSE,167,6.0,11.0,79,0.00,,,0.45,,2013-05-21 19:52:00,
2013-05-21 13:02:00,52.0,46.0,29.79,SSE,167,6.0,11.0,79,0.00,,,0.45,,2013-05-21 20:02:00,
2013-05-21 13:11:00,52.0,46.0,29.79,SSE,167,6.0,11.0,79,0.00,,,0.45,,2013-05-21 20:11:00,
2013-05-21 13:21:00,54.0,47.0,29.78,SW,226,6.0,12.0,77,0.00,,,0.45,,2013-05-21 20:21:00,
2013-05-21 13:32:00,54.0,47.0,29.78,SW,226,6.0,12.0,77,0.00,,,0.45,,2013-05-21 20:32:00,
2013-05-21 13:42:00,54.0,47.0,29.78,SW,226,6.0,12.0,77,0.00,,,0.45,,2013-05-21 20:42:00,
2013-05-21 13:52:00,55.0,45.0,29.78,SSE,148,9.0,15.0,69,0.00,,,0.45,,2013-05-21 20:52:00,
2013-05-21 14:01:00,55.0,45.0,29.78,SSE,148,9.0,15.0,69,0.00,,,0.45,,2013-05-21 21:01:00,
2013-05-21 14:11:00,55.0,45.0,29.78,SSE,148,9.0,15.0,69,0.00,,,0.45,,2013-05-21 21:11:00,
2013-05-21 14:21:00,56.0,46.0,29.78,SE,145,7.0,11.0,69,0.00,,,0.45,,2013-05-21 21:21:00,
2013-05-21 14:32:00,56.0,46.0,29.78,SE,145,7.0,11.0,69,0.00,,,0.45,,2013-05-21 21:32:00,
2013-05-21 14:43:00,56.0,47.0,29.79,West,262,8.0,13.0,71,0.00,,,0.45,,2013-05-21 21:43:00,
2013-05-21 14:54:00,56.0,47.0,29.79,West,262,8.0,13.0,71,0.00,,,0.45,,2013-05-21 21:54:00,
2013-05-21 15:02:00,56.0,47.0,29.79,West,262,8.0,13.0,71,0.00,,,0.45,,2013-05-21 22:02:00,
2013-05-21 15:12:00,56.0,47.0,29.79,West,262,8.0,13.0,71,0.00,,,0.45,,2013-05-21 22:12:00,
2013-05-21 15:22:00,51.0,45.0,29.78,West,271,4.0,10.0,81,0.02,,,0.47,,2013-05-21 22:22:00,
2013-05-21 15:33:00,51.0,45.0,29.78,West,271,4.0,10.0,81,0.02,,,0.47,,2013-05-21 22:33:00,
2013-05-21 15:42:00,51.0,45.0,29.78,West,271,4.0,10.0,81,0.02,,,0.47,,2013-05-21 22:42:00,
2013-05-21 15:52:00,54.0,47.0,29.78,SE,138,2.0,5.0,77,0.02,,,0.47,,2013-05-21 22:52:00,
2013-05-21 16:02:00,54.0,47.0,29.78,SE,138,2.0,5.0,77,0.02,,,0.47,,2013-05-21 23:02:00,
2013-05-21 16:12:00,54.0,47.0,29.78,SE,138,2.0,5.0,77,0.02,,,0.47,,2013-05-21 23:12:00,
2013-05-21 16:22:00,51.0,47.0,29.78,NW,313,2.0,5.0,85,0.04,,,0.51,,2013-05-21 23:22:00,
2013-05-21 16:32:00,51.0,47.0,29.78,NW,313,2.0,5.0,85,0.04,,,0.51,,2013-05-21 23:32:00,
2013-05-21 16:42:00,51.0,48.0,29.78,NNW,333,2.0,6.0,90,0.06,,,0.53,,2013-05-21 23:42:00,
2013-05-21 16:52:00,51.0,48.0,29.78,NNW,333,2.0,6.0,90,0.06,,,0.53,,2013-05-21 23:52:00,
2013-05-21 17:01:00,51.0,48.0,29.78,NNW,333,2.0,6.0,90,0.06,,,0.53,,2013-05-22 00:01:00,
2013-05-21 17:11:00,51.0,48.0,29.78,NNW,333,2.0,6.0,90,0.06,,,0.53,,2013-05-22 00:11:00,
2013-05-21 17:21:00,50.0,47.0,29.78,NW,324,2.0,4.0,91,0.05,,,0.56,,2013-05-22 00:21:00,
2013-05-21 17:31:00,50.0,47.0,29.78,NW,324,2.0,4.0,91,0.05,,,0.56,,2013-05-22 00:31:00,
2013-05-21 17:42:00,50.0,47.0,29.78,NW,324,2.0,4.0,91,0.05,,,0.56,,2013-05-22 00:42:00,
2013-05-21 17:52:00,51.0,48.0,29.78,SE,139,2.0,3.0,89,0.05,,,0.58,,2013-05-22 00:52:00,
2013-05-21 18:01:00,51.0,48.0,29.78,SE,139,2.0,3.0,89,0.05,,,0.58,,2013-05-22 01:01:00,
2013-05-21 18:11:00,51.0,48.0,29.78,SE,139,2.0,3.0,89,0.05,,,0.58,,2013-05-22 01:11:00,
2013-05-21 18:21:00,53.0,48.0,29.79,West,264,1.0,2.0,84,0.02,,,0.58,,2013-05-22 01:21:00,
2013-05-21 18:31:00,53.0,48.0,29.79,West,264,1.0,2.0,84,0.02,,,0.58,,2013-05-22 01:31:00,
2013-05-21 18:42:00,51.0,47.0,29.80,West,269,1.0,4.0,87,0.00,,,0.58,,2013-05-22 01:42:00,
2013-05-21 18:52:00,51.0,47.0,29.80,West,269,1.0,4.0,87,0.00,,,0.58,,2013-05-22 01:52:00,
2013-05-21 19:01:00,51.0,47.0,29.80,West,269,1.0,4.0,87,0.00,,,0.58,,2013-05-22 02:01:00,
2013-05-21 19:11:00,51.0,47.0,29.80,West,269,1.0,4.0,87,0.00,,,0.58,,2013-05-22 02:11:00,
2013-05-21 19:21:00,52.0,47.0,29.80,West,266,7.0,10.0,82,0.00,,,0.58,,2013-05-22 02:21:00,
2013-05-21 19:31:00,52.0,47.0,29.80,West,266,7.0,10.0,82,0.00,,,0.58,,2013-05-22 02:31:00,
2013-05-21 19:42:00,51.0,45.0,29.81,West,278,9.0,16.0,80,0.00,,,0.58,,2013-05-22 02:42:00,
2013-05-21 19:52:00,51.0,45.0,29.81,West,278,9.0,16.0,80,0.00,,,0.58,,2013-05-22 02:52:00,
2013-05-21 20:01:00,51.0,45.0,29.81,West,278,9.0,16.0,80,0.00,,,0.58,,2013-05-22 03:01:00,
2013-05-21 20:11:00,51.0,45.0,29.81,West,278,9.0,16.0,80,0.00,,,0.58,,2013-05-22 03:11:00,
2013-05-21 20:21:00,49.0,44.0,29.82,West,274,6.0,19.0,82,0.00,,,0.58,,2013-05-22 03:21:00,
2013-05-21 20:33:00,49.0,44.0,29.82,West,274,6.0,19.0,82,0.00,,,0.58,,2013-05-22 03:33:00,
2013-05-21 20:43:00,49.0,44.0,29.83,WSW,246,8.0,13.0,83,0.00,,,0.58,,2013-05-22 03:43:00,
2013-05-21 20:53:00,49.0,44.0,29.83,WSW,246,8.0,13.0,83,0.00,,,0.58,,2013-05-22 03:53:00,
2013-05-21 21:03:00,49.0,44.0,29.83,WSW,246,8.0,13.0,83,0.00,,,0.58,,2013-05-22 04:03:00,
2013-05-21 21:12:00,49.0,44.0,29.83,WSW,246,8.0,13.0,83,0.00,,,0.58,,2013-05-22 04:12:00,
2013-05-21 21:22:00,48.0,43.0,29.84,SW,224,7.0,15.0,84,0.00,,,0.58,,2013-05-22 04:22:00,
2013-05-21 21:33:00,48.0,43.0,29.84,SW,224,7.0,15.0,84,0.00,,,0.58,,2013-05-22 04:33:00,
2013-05-21 21:43:00,48.0,43.0,29.85,West,259,5.0,12.0,84,0.00,,,0.58,,2013-05-22 04:43:00,
2013-05-21 21:53:00,48.0,43.0,29.85,West,259,5.0,12.0,84,0.00,,,0.58,,2013-05-22 04:53:00,
2013-05-21 22:02:00,48.0,43.0,29.85,West,259,5.0,12.0,84,0.00,,,0.58,,2013-05-22 05:02:00,
2013-05-21 22:11:00,48.0,44.0,29.85,WSW,253,8.0,13.0,85,0.00,,,0.58,,2013-05-22 05:11:00,
2013-05-21 22:21:00,48.0,44.0,29.85,WSW,253,8.0,13.0,85,0.00,,,0.58,,2013-05-22 05:21:00,
2013-05-21 22:31:00,48.0,44.0,29.85,WSW,253,8.0,13.0,85,0.00,,,0.58,,2013-05-22 05:31:00,
2013-05-21 22:42:00,48.0,44.0,29.85,SSW,193,7.0,14.0,86,0.00,,,0.58,,2013-05-22 05:42:00,
2013-05-21 22:52:00,48.0,44.0,29.85,SSW,193,7.0,14.0,86,0.00,,,0.58,,2013-05-22 05:52:00,
2013-05-21 23:01:00,48.0,44.0,29.85,SSW,193,7.0,14.0,86,0.00,,,0.58,,2013-05-22 06:01:00,
2013-05-21 23:11:00,48.0,44.0,29.85,SSW,193,7.0,14.0,86,0.00,,,0.58,,2013-05-22 06:11:00,
2013-05-21 23:21:00,47.0,44.0,29.85,SW,235,6.0,11.0,88,0.00,,,0.58,,2013-05-22 06:21:00,
2013-05-21 23:31:00,47.0,44.0,29.85,SW,235,6.0,11.0,88,0.00,,,0.58,,2013-05-22 06:31:00,
2013-05-21 23:42:00,47.0,44.0,29.85,SSE,153,5.0,10.0,90,0.00,,,0.58,,2013-05-22 06:42:00,
2013-05-21 23:52:00,47.0,44.0,29.85,SSE,153,5.0,10.0,90,0.00,,,0.58,,2013-05-22 06:52:00,